Data supplied by UK-AIR on 26/3/2019
All Data GMT hour ending 
Status: R =Ratified P=Provisional,P*=As supplied
,,Cannock A5190 Roadside,,,,,,,,,,,,,,,,,,,,,,,
Date,time,"Nitric oxide",status,unit,"Nitrogen dioxide",status,unit,"Nitrogen oxides as nitrogen dioxide",status,unit
 
01-01-2018,01:00,1.11346,R,ugm-3,9.05291,R,ugm-3,10.76019,R,ugm-3
01-01-2018,02:00,0.89077,R,ugm-3,5.10391,R,ugm-3,6.46974,R,ugm-3
01-01-2018,03:00,0.63467,R,ugm-3,3.21515,R,ugm-3,4.18830,R,ugm-3
01-01-2018,04:00,0.46765,R,ugm-3,2.80724,R,ugm-3,3.52430,R,ugm-3
01-01-2018,05:00,0.70148,R,ugm-3,2.55087,R,ugm-3,3.62646,R,ugm-3
01-01-2018,06:00,0.56787,R,ugm-3,2.50036,R,ugm-3,3.37107,R,ugm-3
01-01-2018,07:00,0.83510,R,ugm-3,3.11215,R,ugm-3,4.39261,R,ugm-3
01-01-2018,08:00,1.40296,R,ugm-3,4.53989,R,ugm-3,6.69107,R,ugm-3
01-01-2018,09:00,1.87062,R,ugm-3,6.68314,R,ugm-3,9.55137,R,ugm-3
01-01-2018,10:00,1.63679,R,ugm-3,7.55243,R,ugm-3,10.06214,R,ugm-3
01-01-2018,11:00,2.77252,R,ugm-3,12.70638,R,ugm-3,16.95752,R,ugm-3
01-01-2018,12:00,3.13996,R,ugm-3,16.73989,R,ugm-3,21.55444,R,ugm-3
01-01-2018,13:00,4.97718,R,ugm-3,18.87733,R,ugm-3,26.50889,R,ugm-3
01-01-2018,14:00,3.34039,R,ugm-3,10.71197,R,ugm-3,15.83383,R,ugm-3
01-01-2018,15:00,3.70783,R,ugm-3,17.60579,R,ugm-3,23.29105,R,ugm-3
01-01-2018,16:00,2.43848,R,ugm-3,17.96871,R,ugm-3,21.70767,R,ugm-3
01-01-2018,17:00,2.20466,R,ugm-3,15.16048,R,ugm-3,18.54090,R,ugm-3
01-01-2018,18:00,2.27146,R,ugm-3,7.34543,R,ugm-3,10.82830,R,ugm-3
01-01-2018,19:00,2.83933,R,ugm-3,6.47472,R,ugm-3,10.82830,R,ugm-3
01-01-2018,20:00,1.73700,R,ugm-3,4.12986,R,ugm-3,6.79322,R,ugm-3
01-01-2018,21:00,1.60339,R,ugm-3,4.89658,R,ugm-3,7.35507,R,ugm-3
01-01-2018,22:00,1.23594,R,ugm-3,4.89814,R,ugm-3,6.79322,R,ugm-3
01-01-2018,23:00,0.80169,R,ugm-3,4.59352,R,ugm-3,5.82276,R,ugm-3
01-01-2018,24:00,0.66808,R,ugm-3,3.57255,R,ugm-3,4.59692,R,ugm-3
02-01-2018,01:00,0.89048,R,ugm-3,2.92368,R,ugm-3,4.28906,R,ugm-3
02-01-2018,02:00,0.57881,R,ugm-3,2.78884,R,ugm-3,3.67634,R,ugm-3
02-01-2018,03:00,0.66786,R,ugm-3,8.52424,R,ugm-3,9.54827,R,ugm-3
02-01-2018,04:00,0.66786,R,ugm-3,9.95393,R,ugm-3,10.97796,R,ugm-3
02-01-2018,05:00,1.40250,R,ugm-3,9.03173,R,ugm-3,11.18220,R,ugm-3
02-01-2018,06:00,5.30948,R,ugm-3,38.52801,R,ugm-3,46.66910,R,ugm-3
02-01-2018,07:00,6.57841,R,ugm-3,22.79607,R,ugm-3,32.88283,R,ugm-3
02-01-2018,08:00,5.34287,R,ugm-3,39.29378,R,ugm-3,47.48607,R,ugm-3
02-01-2018,09:00,5.94395,R,ugm-3,52.46478,R,ugm-3,61.57871,R,ugm-3
02-01-2018,10:00,6.71198,R,ugm-3,36.88814,R,ugm-3,47.17970,R,ugm-3
02-01-2018,11:00,8.64877,R,ugm-3,34.93964,R,ugm-3,48.20091,R,ugm-3
02-01-2018,12:00,7.61359,R,ugm-3,36.27160,R,ugm-3,47.94561,R,ugm-3
02-01-2018,13:00,3.84019,R,ugm-3,27.19886,R,ugm-3,33.08707,R,ugm-3
02-01-2018,14:00,3.87358,R,ugm-3,22.29693,R,ugm-3,28.23634,R,ugm-3
02-01-2018,15:00,6.47823,R,ugm-3,30.50660,R,ugm-3,40.43975,R,ugm-3
02-01-2018,16:00,9.45021,R,ugm-3,51.93932,R,ugm-3,66.42943,R,ugm-3
02-01-2018,17:00,6.54502,R,ugm-3,50.57301,R,ugm-3,60.60856,R,ugm-3
02-01-2018,18:00,4.74180,R,ugm-3,20.81250,R,ugm-3,28.08316,R,ugm-3
02-01-2018,19:00,3.03876,R,ugm-3,14.84567,R,ugm-3,19.50503,R,ugm-3
02-01-2018,20:00,2.27072,R,ugm-3,14.59362,R,ugm-3,18.07534,R,ugm-3
02-01-2018,21:00,1.60286,R,ugm-3,8.36709,R,ugm-3,10.82478,R,ugm-3
02-01-2018,22:00,1.60286,R,ugm-3,7.80543,R,ugm-3,10.26312,R,ugm-3
02-01-2018,23:00,0.96840,R,ugm-3,7.14434,R,ugm-3,8.62919,R,ugm-3
02-01-2018,24:00,0.96840,R,ugm-3,7.85918,R,ugm-3,9.34403,R,ugm-3
03-01-2018,01:00,0.93470,R,ugm-3,7.41439,R,ugm-3,8.84758,R,ugm-3
03-01-2018,02:00,0.40058,R,ugm-3,5.37491,R,ugm-3,5.98913,R,ugm-3
03-01-2018,03:00,0.63426,R,ugm-3,4.99960,R,ugm-3,5.97211,R,ugm-3
03-01-2018,04:00,0.23367,R,ugm-3,2.19389,R,ugm-3,2.55219,R,ugm-3
03-01-2018,05:00,0.73441,R,ugm-3,1.73238,R,ugm-3,2.85845,R,ugm-3
03-01-2018,06:00,1.33528,R,ugm-3,4.23097,R,ugm-3,6.27838,R,ugm-3
03-01-2018,07:00,2.20322,R,ugm-3,6.77948,R,ugm-3,10.15770,R,ugm-3
03-01-2018,08:00,5.14083,R,ugm-3,13.81108,R,ugm-3,21.69358,R,ugm-3
03-01-2018,09:00,3.90570,R,ugm-3,13.15274,R,ugm-3,19.14139,R,ugm-3
03-01-2018,10:00,3.10453,R,ugm-3,9.94038,R,ugm-3,14.70059,R,ugm-3
03-01-2018,11:00,3.30482,R,ugm-3,9.73535,R,ugm-3,14.80268,R,ugm-3
03-01-2018,12:00,4.70687,R,ugm-3,10.39298,R,ugm-3,17.61008,R,ugm-3
03-01-2018,13:00,,,,,,,,,
03-01-2018,14:00,3.00438,R,ugm-3,10.29811,R,ugm-3,14.90476,R,ugm-3
03-01-2018,15:00,3.70541,R,ugm-3,16.57352,R,ugm-3,22.25506,R,ugm-3
03-01-2018,16:00,4.17275,R,ugm-3,19.07268,R,ugm-3,25.47081,R,ugm-3
03-01-2018,17:00,3.27144,R,ugm-3,14.32943,R,ugm-3,19.34557,R,ugm-3
03-01-2018,18:00,4.13937,R,ugm-3,14.68306,R,ugm-3,21.03001,R,ugm-3
03-01-2018,19:00,1.86939,R,ugm-3,8.41430,R,ugm-3,11.28066,R,ugm-3
03-01-2018,20:00,2.70394,R,ugm-3,9.58477,R,ugm-3,13.73076,R,ugm-3
03-01-2018,21:00,2.00292,R,ugm-3,13.51810,R,ugm-3,16.58921,R,ugm-3
03-01-2018,22:00,1.40205,R,ugm-3,19.23754,R,ugm-3,21.38731,R,ugm-3
03-01-2018,23:00,0.86793,R,ugm-3,4.33504,R,ugm-3,5.66585,R,ugm-3
03-01-2018,24:00,0.80117,R,ugm-3,9.23552,R,ugm-3,10.46396,R,ugm-3
04-01-2018,01:00,0.62412,R,ugm-3,4.96067,R,ugm-3,5.91764,R,ugm-3
04-01-2018,02:00,0.62412,R,ugm-3,5.70888,R,ugm-3,6.66585,R,ugm-3
04-01-2018,03:00,1.27054,R,ugm-3,21.05926,R,ugm-3,23.00739,R,ugm-3
04-01-2018,04:00,1.13679,R,ugm-3,14.37742,R,ugm-3,16.12047,R,ugm-3
04-01-2018,05:00,1.33741,R,ugm-3,5.65248,R,ugm-3,7.70314,R,ugm-3
04-01-2018,06:00,2.37389,R,ugm-3,9.41971,R,ugm-3,13.05963,R,ugm-3
04-01-2018,07:00,4.61405,R,ugm-3,20.52389,R,ugm-3,27.59866,R,ugm-3
04-01-2018,08:00,25.14320,R,ugm-3,51.64067,R,ugm-3,90.19304,R,ugm-3
04-01-2018,09:00,12.83908,R,ugm-3,41.88778,R,ugm-3,61.57409,R,ugm-3
04-01-2018,10:00,7.55633,R,ugm-3,40.60127,R,ugm-3,52.18749,R,ugm-3
04-01-2018,11:00,6.35267,R,ugm-3,32.95823,R,ugm-3,42.69885,R,ugm-3
04-01-2018,12:00,5.41649,R,ugm-3,27.45576,R,ugm-3,35.76093,R,ugm-3
04-01-2018,13:00,4.51374,R,ugm-3,26.79939,R,ugm-3,33.72036,R,ugm-3
04-01-2018,14:00,3.64443,R,ugm-3,17.92949,R,ugm-3,23.51753,R,ugm-3
04-01-2018,15:00,3.81160,R,ugm-3,13.59202,R,ugm-3,19.43640,R,ugm-3
04-01-2018,16:00,4.94840,R,ugm-3,12.86924,R,ugm-3,20.45668,R,ugm-3
04-01-2018,17:00,4.41343,R,ugm-3,13.58748,R,ugm-3,20.35465,R,ugm-3
04-01-2018,18:00,6.38611,R,ugm-3,21.32675,R,ugm-3,31.11864,R,ugm-3
04-01-2018,19:00,4.34656,R,ugm-3,19.65867,R,ugm-3,26.32331,R,ugm-3
04-01-2018,20:00,3.20977,R,ugm-3,22.01390,R,ugm-3,26.93548,R,ugm-3
04-01-2018,21:00,3.77817,R,ugm-3,28.99855,R,ugm-3,34.79166,R,ugm-3
04-01-2018,22:00,2.24015,R,ugm-3,29.36725,R,ugm-3,32.80211,R,ugm-3
04-01-2018,23:00,1.87237,R,ugm-3,23.45239,R,ugm-3,26.32331,R,ugm-3
04-01-2018,24:00,2.87542,R,ugm-3,37.26965,R,ugm-3,41.67857,R,ugm-3
05-01-2018,01:00,2.27720,R,ugm-3,36.41231,R,ugm-3,39.90396,R,ugm-3
05-01-2018,02:00,,,,,,,,,
05-01-2018,03:00,5.92741,R,ugm-3,21.40023,R,ugm-3,30.48880,R,ugm-3
05-01-2018,04:00,1.77487,R,ugm-3,10.38161,R,ugm-3,13.10305,R,ugm-3
05-01-2018,05:00,2.71254,R,ugm-3,10.01455,R,ugm-3,14.17372,R,ugm-3
05-01-2018,06:00,4.82230,R,ugm-3,17.58837,R,ugm-3,24.98246,R,ugm-3
05-01-2018,07:00,41.19047,R,ugm-3,54.10678,R,ugm-3,117.26461,R,ugm-3
05-01-2018,08:00,56.89643,R,ugm-3,78.20510,R,ugm-3,165.44507,R,ugm-3
05-01-2018,09:00,22.77197,R,ugm-3,57.16169,R,ugm-3,92.07821,R,ugm-3
05-01-2018,10:00,10.28087,R,ugm-3,42.76655,R,ugm-3,58.53034,R,ugm-3
05-01-2018,11:00,3.65021,R,ugm-3,22.64856,R,ugm-3,28.24548,R,ugm-3
05-01-2018,12:00,6.46322,R,ugm-3,28.02242,R,ugm-3,37.93255,R,ugm-3
05-01-2018,13:00,11.55342,R,ugm-3,36.48164,R,ugm-3,54.19665,R,ugm-3
05-01-2018,14:00,11.95528,R,ugm-3,29.54338,R,ugm-3,47.87455,R,ugm-3
05-01-2018,15:00,18.05013,R,ugm-3,49.31028,R,ugm-3,76.98677,R,ugm-3
05-01-2018,16:00,20.09291,R,ugm-3,56.68090,R,ugm-3,87.48960,R,ugm-3
05-01-2018,17:00,33.92353,R,ugm-3,60.40572,R,ugm-3,112.42107,R,ugm-3
05-01-2018,18:00,67.00986,R,ugm-3,82.83698,R,ugm-3,185.58400,R,ugm-3
05-01-2018,19:00,77.72608,R,ugm-3,76.50062,R,ugm-3,195.67895,R,ugm-3
05-01-2018,20:00,63.32616,R,ugm-3,85.06927,R,ugm-3,182.16803,R,ugm-3
05-01-2018,21:00,68.85171,R,ugm-3,83.68374,R,ugm-3,189.25489,R,ugm-3
05-01-2018,22:00,47.31881,R,ugm-3,76.21861,R,ugm-3,148.77311,R,ugm-3
05-01-2018,23:00,24.21196,R,ugm-3,61.42878,R,ugm-3,98.55326,R,ugm-3
05-01-2018,24:00,16.47619,R,ugm-3,51.31576,R,ugm-3,76.57889,R,ugm-3
06-01-2018,01:00,21.73474,R,ugm-3,53.70512,R,ugm-3,87.03126,R,ugm-3
06-01-2018,02:00,6.43992,R,ugm-3,30.82171,R,ugm-3,40.69611,R,ugm-3
06-01-2018,03:00,6.77534,R,ugm-3,22.88496,R,ugm-3,33.27366,R,ugm-3
06-01-2018,04:00,7.94928,R,ugm-3,23.22505,R,ugm-3,35.41377,R,ugm-3
06-01-2018,05:00,8.82135,R,ugm-3,29.37828,R,ugm-3,42.90417,R,ugm-3
06-01-2018,06:00,6.80888,R,ugm-3,26.19656,R,ugm-3,36.63669,R,ugm-3
06-01-2018,07:00,10.19654,R,ugm-3,29.15502,R,ugm-3,44.78951,R,ugm-3
06-01-2018,08:00,12.30964,R,ugm-3,25.40543,R,ugm-3,44.27995,R,ugm-3
06-01-2018,09:00,12.47735,R,ugm-3,28.30750,R,ugm-3,47.43917,R,ugm-3
06-01-2018,10:00,11.80653,R,ugm-3,21.43805,R,ugm-3,39.54113,R,ugm-3
06-01-2018,11:00,15.29482,R,ugm-3,23.32503,R,ugm-3,46.77675,R,ugm-3
06-01-2018,12:00,14.85878,R,ugm-3,19.45861,R,ugm-3,42.24175,R,ugm-3
06-01-2018,13:00,15.49606,R,ugm-3,21.23302,R,ugm-3,44.99333,R,ugm-3
06-01-2018,14:00,13.24880,R,ugm-3,20.75524,R,ugm-3,41.06978,R,ugm-3
06-01-2018,15:00,10.93445,R,ugm-3,20.32936,R,ugm-3,37.09529,R,ugm-3
06-01-2018,16:00,12.77922,R,ugm-3,20.04851,R,ugm-3,39.64304,R,ugm-3
06-01-2018,17:00,12.54443,R,ugm-3,25.50402,R,ugm-3,44.73855,R,ugm-3
06-01-2018,18:00,11.37049,R,ugm-3,23.02382,R,ugm-3,40.45832,R,ugm-3
06-01-2018,19:00,9.92821,R,ugm-3,20.80218,R,ugm-3,36.02523,R,ugm-3
06-01-2018,20:00,4.76286,R,ugm-3,18.12363,R,ugm-3,25.42658,R,ugm-3
06-01-2018,21:00,4.66224,R,ugm-3,16.90213,R,ugm-3,24.05079,R,ugm-3
06-01-2018,22:00,3.55537,R,ugm-3,17.58019,R,ugm-3,23.03169,R,ugm-3
06-01-2018,23:00,2.81747,R,ugm-3,15.14478,R,ugm-3,19.46484,R,ugm-3
06-01-2018,24:00,2.14664,R,ugm-3,14.23707,R,ugm-3,17.52854,R,ugm-3
07-01-2018,01:00,2.35161,R,ugm-3,11.97747,R,ugm-3,15.58321,R,ugm-3
07-01-2018,02:00,2.06045,R,ugm-3,9.13071,R,ugm-3,12.29003,R,ugm-3
07-01-2018,03:00,0.94064,R,ugm-3,8.43725,R,ugm-3,9.87955,R,ugm-3
07-01-2018,04:00,1.14221,R,ugm-3,6.04025,R,ugm-3,7.79161,R,ugm-3
07-01-2018,05:00,0.70548,R,ugm-3,5.53859,R,ugm-3,6.62032,R,ugm-3
07-01-2018,06:00,1.64612,R,ugm-3,5.67499,R,ugm-3,8.19901,R,ugm-3
07-01-2018,07:00,1.07502,R,ugm-3,6.14327,R,ugm-3,7.79161,R,ugm-3
07-01-2018,08:00,2.18363,R,ugm-3,6.93877,R,ugm-3,10.28696,R,ugm-3
07-01-2018,09:00,2.92271,R,ugm-3,8.19903,R,ugm-3,12.68045,R,ugm-3
07-01-2018,10:00,7.02122,R,ugm-3,13.22020,R,ugm-3,23.98592,R,ugm-3
07-01-2018,11:00,11.35489,R,ugm-3,17.52432,R,ugm-3,34.93491,R,ugm-3
07-01-2018,12:00,14.07603,R,ugm-3,18.95377,R,ugm-3,40.53672,R,ugm-3
07-01-2018,13:00,12.32912,R,ugm-3,21.73417,R,ugm-3,40.63857,R,ugm-3
07-01-2018,14:00,13.30336,R,ugm-3,23.24497,R,ugm-3,43.64317,R,ugm-3
07-01-2018,15:00,11.42208,R,ugm-3,24.55088,R,ugm-3,42.06448,R,ugm-3
07-01-2018,16:00,13.20258,R,ugm-3,26.81151,R,ugm-3,47.05518,R,ugm-3
07-01-2018,17:00,7.55873,R,ugm-3,19.32191,R,ugm-3,30.91179,R,ugm-3
07-01-2018,18:00,8.33140,R,ugm-3,23.58619,R,ugm-3,36.36082,R,ugm-3
07-01-2018,19:00,5.34150,R,ugm-3,19.36052,R,ugm-3,27.55071,R,ugm-3
07-01-2018,20:00,6.11417,R,ugm-3,24.84702,R,ugm-3,34.22195,R,ugm-3
07-01-2018,21:00,4.33367,R,ugm-3,18.10494,R,ugm-3,24.74980,R,ugm-3
07-01-2018,22:00,4.50164,R,ugm-3,22.22698,R,ugm-3,29.12940,R,ugm-3
07-01-2018,23:00,1.71331,R,ugm-3,13.31265,R,ugm-3,15.93969,R,ugm-3
07-01-2018,24:00,0.83986,R,ugm-3,8.13346,R,ugm-3,9.42122,R,ugm-3
08-01-2018,01:00,0.94213,R,ugm-3,7.58098,R,ugm-3,9.02555,R,ugm-3
08-01-2018,02:00,0.26918,R,ugm-3,5.69478,R,ugm-3,6.10752,R,ugm-3
08-01-2018,03:00,0.71781,R,ugm-3,6.83914,R,ugm-3,7.93977,R,ugm-3
08-01-2018,04:00,0.47106,R,ugm-3,5.48702,R,ugm-3,6.20931,R,ugm-3
08-01-2018,05:00,1.81696,R,ugm-3,6.42621,R,ugm-3,9.21217,R,ugm-3
08-01-2018,06:00,5.72006,R,ugm-3,13.47090,R,ugm-3,22.24154,R,ugm-3
08-01-2018,07:00,12.98790,R,ugm-3,20.90407,R,ugm-3,40.81857,R,ugm-3
08-01-2018,08:00,20.65952,R,ugm-3,33.52026,R,ugm-3,65.19775,R,ugm-3
08-01-2018,09:00,31.49398,R,ugm-3,43.62803,R,ugm-3,91.91813,R,ugm-3
08-01-2018,10:00,30.08079,R,ugm-3,42.53755,R,ugm-3,88.66079,R,ugm-3
08-01-2018,11:00,27.82642,R,ugm-3,49.14976,R,ugm-3,91.81634,R,ugm-3
08-01-2018,12:00,20.82775,R,ugm-3,41.50745,R,ugm-3,73.44289,R,ugm-3
08-01-2018,13:00,21.29882,R,ugm-3,32.23464,R,ugm-3,64.89237,R,ugm-3
08-01-2018,14:00,26.00946,R,ugm-3,37.63396,R,ugm-3,77.51457,R,ugm-3
08-01-2018,15:00,36.40651,R,ugm-3,48.10705,R,ugm-3,103.92958,R,ugm-3
08-01-2018,16:00,41.25174,R,ugm-3,46.37815,R,ugm-3,109.62993,R,ugm-3
08-01-2018,17:00,43.23693,R,ugm-3,50.51056,R,ugm-3,116.80626,R,ugm-3
08-01-2018,18:00,36.30557,R,ugm-3,51.06110,R,ugm-3,106.72886,R,ugm-3
08-01-2018,19:00,26.78335,R,ugm-3,36.09107,R,ugm-3,77.15830,R,ugm-3
08-01-2018,20:00,21.63529,R,ugm-3,34.00904,R,ugm-3,67.18269,R,ugm-3
08-01-2018,21:00,14.56933,R,ugm-3,30.28711,R,ugm-3,52.62644,R,ugm-3
08-01-2018,22:00,9.85869,R,ugm-3,26.16018,R,ugm-3,41.27664,R,ugm-3
08-01-2018,23:00,6.66219,R,ugm-3,20.57685,R,ugm-3,30.79207,R,ugm-3
08-01-2018,24:00,3.90310,R,ugm-3,16.91852,R,ugm-3,22.90319,R,ugm-3
09-01-2018,01:00,2.96564,R,ugm-3,15.74845,R,ugm-3,20.29570,R,ugm-3
09-01-2018,02:00,3.77446,R,ugm-3,19.78144,R,ugm-3,25.56886,R,ugm-3
09-01-2018,03:00,4.07776,R,ugm-3,20.85933,R,ugm-3,27.11181,R,ugm-3
09-01-2018,04:00,3.53855,R,ugm-3,20.00751,R,ugm-3,25.43322,R,ugm-3
09-01-2018,05:00,9.53724,R,ugm-3,21.59333,R,ugm-3,36.21690,R,ugm-3
09-01-2018,06:00,11.25597,R,ugm-3,23.99377,R,ugm-3,41.25268,R,ugm-3
09-01-2018,07:00,24.43286,R,ugm-3,33.24114,R,ugm-3,70.70434,R,ugm-3
09-01-2018,08:00,28.03881,R,ugm-3,39.51310,R,ugm-3,82.50535,R,ugm-3
09-01-2018,09:00,34.27341,R,ugm-3,43.84006,R,ugm-3,96.39188,R,ugm-3
09-01-2018,10:00,27.83661,R,ugm-3,41.95953,R,ugm-3,84.64174,R,ugm-3
09-01-2018,11:00,19.37779,R,ugm-3,37.48236,R,ugm-3,67.19455,R,ugm-3
09-01-2018,12:00,44.55206,R,ugm-3,37.89690,R,ugm-3,106.20910,R,ugm-3
09-01-2018,13:00,46.97849,R,ugm-3,46.99476,R,ugm-3,119.02744,R,ugm-3
09-01-2018,14:00,35.31812,R,ugm-3,40.30526,R,ugm-3,94.45896,R,ugm-3
09-01-2018,15:00,44.41726,R,ugm-3,47.10695,R,ugm-3,115.21246,R,ugm-3
09-01-2018,16:00,58.80737,R,ugm-3,51.03517,R,ugm-3,141.20521,R,ugm-3
09-01-2018,17:00,60.69460,R,ugm-3,50.12525,R,ugm-3,143.18900,R,ugm-3
09-01-2018,18:00,58.26816,R,ugm-3,51.91281,R,ugm-3,141.25607,R,ugm-3
09-01-2018,19:00,49.13533,R,ugm-3,48.36737,R,ugm-3,123.70716,R,ugm-3
09-01-2018,20:00,31.91437,R,ugm-3,43.33702,R,ugm-3,92.27170,R,ugm-3
09-01-2018,21:00,14.39011,R,ugm-3,41.31504,R,ugm-3,63.37957,R,ugm-3
09-01-2018,22:00,9.43614,R,ugm-3,41.12846,R,ugm-3,55.59701,R,ugm-3
09-01-2018,23:00,9.23394,R,ugm-3,37.77612,R,ugm-3,51.93462,R,ugm-3
09-01-2018,24:00,4.07776,R,ugm-3,26.55637,R,ugm-3,32.80885,R,ugm-3
10-01-2018,01:00,4.09543,R,ugm-3,24.01920,R,ugm-3,30.29878,R,ugm-3
10-01-2018,02:00,3.64539,R,ugm-3,19.28667,R,ugm-3,24.87618,R,ugm-3
10-01-2018,03:00,4.15169,R,ugm-3,18.90010,R,ugm-3,25.26593,R,ugm-3
10-01-2018,04:00,9.24848,R,ugm-3,20.28660,R,ugm-3,34.46741,R,ugm-3
10-01-2018,05:00,42.19197,R,ugm-3,34.89600,R,ugm-3,99.58945,R,ugm-3
10-01-2018,06:00,53.73569,R,ugm-3,44.39361,R,ugm-3,126.78719,R,ugm-3
10-01-2018,07:00,30.58074,R,ugm-3,45.93833,R,ugm-3,92.82815,R,ugm-3
10-01-2018,08:00,63.08543,R,ugm-3,58.47536,R,ugm-3,155.20500,R,ugm-3
10-01-2018,09:00,91.74222,R,ugm-3,68.11764,R,ugm-3,208.78708,R,ugm-3
10-01-2018,10:00,86.40915,R,ugm-3,70.55032,R,ugm-3,203.04251,R,ugm-3
10-01-2018,11:00,25.72022,R,ugm-3,47.08725,R,ugm-3,86.52437,R,ugm-3
10-01-2018,12:00,22.71616,R,ugm-3,45.13546,R,ugm-3,79.96642,R,ugm-3
10-01-2018,13:00,17.92315,R,ugm-3,42.97814,R,ugm-3,70.45992,R,ugm-3
10-01-2018,14:00,14.48028,R,ugm-3,32.04016,R,ugm-3,54.24295,R,ugm-3
10-01-2018,15:00,16.50550,R,ugm-3,36.76376,R,ugm-3,62.07183,R,ugm-3
10-01-2018,16:00,44.45346,R,ugm-3,62.64228,R,ugm-3,130.80330,R,ugm-3
10-01-2018,17:00,180.14283,R,ugm-3,120.97341,R,ugm-3,397.18856,R,ugm-3
10-01-2018,18:00,235.46494,R,ugm-3,136.75355,R,ugm-3,497.79475,R,ugm-3
10-01-2018,19:00,158.77682,R,ugm-3,110.92952,R,ugm-3,354.38391,R,ugm-3
10-01-2018,20:00,68.75603,R,ugm-3,80.07934,R,ugm-3,185.50379,R,ugm-3
10-01-2018,21:00,96.94027,R,ugm-3,79.41459,R,ugm-3,228.05426,R,ugm-3
10-01-2018,22:00,23.22246,R,ugm-3,54.27233,R,ugm-3,89.87961,R,ugm-3
10-01-2018,23:00,22.44613,R,ugm-3,49.81980,R,ugm-3,84.23672,R,ugm-3
10-01-2018,24:00,13.77146,R,ugm-3,42.83686,R,ugm-3,63.95280,R,ugm-3
11-01-2018,01:00,5.72459,R,ugm-3,39.92971,R,ugm-3,48.70730,R,ugm-3
11-01-2018,02:00,12.89160,R,ugm-3,53.53120,R,ugm-3,73.29805,R,ugm-3
11-01-2018,03:00,4.12441,R,ugm-3,46.31239,R,ugm-3,52.63640,R,ugm-3
11-01-2018,04:00,5.67952,R,ugm-3,54.80070,R,ugm-3,63.50917,R,ugm-3
11-01-2018,05:00,5.54429,R,ugm-3,56.68469,R,ugm-3,65.18581,R,ugm-3
11-01-2018,06:00,10.24342,R,ugm-3,54.25535,R,ugm-3,69.96170,R,ugm-3
11-01-2018,07:00,17.61327,R,ugm-3,50.98263,R,ugm-3,77.98926,R,ugm-3
11-01-2018,08:00,31.30496,R,ugm-3,56.66284,R,ugm-3,104.66311,R,ugm-3
11-01-2018,09:00,41.71741,R,ugm-3,60.00410,R,ugm-3,123.96990,R,ugm-3
11-01-2018,10:00,32.11632,R,ugm-3,51.86226,R,ugm-3,101.10660,R,ugm-3
11-01-2018,11:00,25.82828,R,ugm-3,40.74052,R,ugm-3,80.34334,R,ugm-3
11-01-2018,12:00,,,,,,,,,
11-01-2018,13:00,,,,,,,,,
11-01-2018,14:00,18.86411,R,ugm-3,32.45069,R,ugm-3,61.37526,R,ugm-3
11-01-2018,15:00,20.38541,R,ugm-3,38.19643,R,ugm-3,69.45363,R,ugm-3
11-01-2018,16:00,20.92632,R,ugm-3,45.69946,R,ugm-3,77.78603,R,ugm-3
11-01-2018,17:00,17.74849,R,ugm-3,55.50037,R,ugm-3,82.71434,R,ugm-3
11-01-2018,18:00,23.02233,R,ugm-3,58.59154,R,ugm-3,93.89196,R,ugm-3
11-01-2018,19:00,36.84925,R,ugm-3,59.03448,R,ugm-3,115.53588,R,ugm-3
11-01-2018,20:00,30.62883,R,ugm-3,59.63025,R,ugm-3,106.59379,R,ugm-3
11-01-2018,21:00,36.84925,R,ugm-3,57.45946,R,ugm-3,113.96086,R,ugm-3
11-01-2018,22:00,31.87967,R,ugm-3,56.18809,R,ugm-3,105.06957,R,ugm-3
11-01-2018,23:00,19.64167,R,ugm-3,49.54910,R,ugm-3,79.66590,R,ugm-3
11-01-2018,24:00,19.50644,R,ugm-3,44.87894,R,ugm-3,74.78840,R,ugm-3
12-01-2018,01:00,24.11486,R,ugm-3,39.64170,R,ugm-3,76.61730,R,ugm-3
12-01-2018,02:00,23.84441,R,ugm-3,34.76307,R,ugm-3,71.32399,R,ugm-3
12-01-2018,03:00,14.36750,R,ugm-3,32.58288,R,ugm-3,54.61273,R,ugm-3
12-01-2018,04:00,14.53653,R,ugm-3,33.03626,R,ugm-3,55.32529,R,ugm-3
12-01-2018,05:00,20.11450,R,ugm-3,35.78268,R,ugm-3,66.62448,R,ugm-3
12-01-2018,06:00,47.46345,R,ugm-3,40.21558,R,ugm-3,112.99186,R,ugm-3
12-01-2018,07:00,91.68154,R,ugm-3,49.47388,R,ugm-3,190.05027,R,ugm-3
12-01-2018,08:00,155.30420,R,ugm-3,63.63992,R,ugm-3,301.76970,R,ugm-3
12-01-2018,09:00,90.73497,R,ugm-3,57.74548,R,ugm-3,196.87050,R,ugm-3
12-01-2018,10:00,59.12648,R,ugm-3,46.05064,R,ugm-3,136.70997,R,ugm-3
12-01-2018,11:00,51.92583,R,ugm-3,40.60078,R,ugm-3,120.21927,R,ugm-3
12-01-2018,12:00,54.73171,R,ugm-3,45.66357,R,ugm-3,129.58436,R,ugm-3
12-01-2018,13:00,52.66956,R,ugm-3,45.31359,R,ugm-3,126.07245,R,ugm-3
12-01-2018,14:00,28.26171,R,ugm-3,43.86991,R,ugm-3,87.20393,R,ugm-3
12-01-2018,15:00,27.01090,R,ugm-3,40.12124,R,ugm-3,81.53737,R,ugm-3
12-01-2018,16:00,45.90838,R,ugm-3,50.03099,R,ugm-3,120.42286,R,ugm-3
12-01-2018,17:00,44.79279,R,ugm-3,49.14578,R,ugm-3,117.82710,R,ugm-3
12-01-2018,18:00,51.21590,R,ugm-3,53.85375,R,ugm-3,132.38371,R,ugm-3
12-01-2018,19:00,41.14175,R,ugm-3,54.84575,R,ugm-3,117.92889,R,ugm-3
12-01-2018,20:00,30.79715,R,ugm-3,46.02209,R,ugm-3,93.24373,R,ugm-3
12-01-2018,21:00,7.70774,R,ugm-3,39.84232,R,ugm-3,51.66069,R,ugm-3
12-01-2018,22:00,5.07088,R,ugm-3,30.29589,R,ugm-3,38.07113,R,ugm-3
12-01-2018,23:00,4.05671,R,ugm-3,26.35404,R,ugm-3,32.57423,R,ugm-3
12-01-2018,24:00,3.48201,R,ugm-3,20.82218,R,ugm-3,26.16118,R,ugm-3
13-01-2018,01:00,2.70441,R,ugm-3,18.76352,R,ugm-3,22.91022,R,ugm-3
13-01-2018,02:00,1.84801,R,ugm-3,10.42308,R,ugm-3,13.25665,R,ugm-3
13-01-2018,03:00,1.89309,R,ugm-3,11.62864,R,ugm-3,14.53133,R,ugm-3
13-01-2018,04:00,1.92689,R,ugm-3,10.96496,R,ugm-3,13.91949,R,ugm-3
13-01-2018,05:00,2.19733,R,ugm-3,10.95819,R,ugm-3,14.32739,R,ugm-3
13-01-2018,06:00,2.97485,R,ugm-3,11.85649,R,ugm-3,16.41786,R,ugm-3
13-01-2018,07:00,5.10457,R,ugm-3,14.04658,R,ugm-3,21.87348,R,ugm-3
13-01-2018,08:00,6.25394,R,ugm-3,17.89282,R,ugm-3,27.48207,R,ugm-3
13-01-2018,09:00,6.99766,R,ugm-3,21.74921,R,ugm-3,32.47880,R,ugm-3
13-01-2018,10:00,8.18083,R,ugm-3,22.33143,R,ugm-3,34.87520,R,ugm-3
13-01-2018,11:00,15.07707,R,ugm-3,27.66533,R,ugm-3,50.78318,R,ugm-3
13-01-2018,12:00,9.97250,R,ugm-3,27.74218,R,ugm-3,43.03314,R,ugm-3
13-01-2018,13:00,10.00631,R,ugm-3,25.75283,R,ugm-3,41.09563,R,ugm-3
13-01-2018,14:00,9.70206,R,ugm-3,28.66672,R,ugm-3,43.54301,R,ugm-3
13-01-2018,15:00,11.73037,R,ugm-3,34.02056,R,ugm-3,52.00688,R,ugm-3
13-01-2018,16:00,12.71072,R,ugm-3,39.29867,R,ugm-3,58.78816,R,ugm-3
13-01-2018,17:00,14.33336,R,ugm-3,34.77116,R,ugm-3,56.74868,R,ugm-3
13-01-2018,18:00,14.60380,R,ugm-3,38.23151,R,ugm-3,60.62370,R,ugm-3
13-01-2018,19:00,19.03227,R,ugm-3,52.75391,R,ugm-3,81.93632,R,ugm-3
13-01-2018,20:00,15.55035,R,ugm-3,39.99236,R,ugm-3,63.83589,R,ugm-3
13-01-2018,21:00,7.57234,R,ugm-3,33.05397,R,ugm-3,44.66473,R,ugm-3
13-01-2018,22:00,8.65411,R,ugm-3,32.41503,R,ugm-3,45.68447,R,ugm-3
13-01-2018,23:00,8.28225,R,ugm-3,30.53782,R,ugm-3,43.23709,R,ugm-3
13-01-2018,24:00,5.57784,R,ugm-3,24.07919,R,ugm-3,32.63177,R,ugm-3
14-01-2018,01:00,3.21141,R,ugm-3,20.81873,R,ugm-3,25.74282,R,ugm-3
14-01-2018,02:00,4.28188,R,ugm-3,20.40321,R,ugm-3,26.96867,R,ugm-3
14-01-2018,03:00,3.98891,R,ugm-3,21.61858,R,ugm-3,27.73483,R,ugm-3
14-01-2018,04:00,9.53282,R,ugm-3,25.93838,R,ugm-3,40.55516,R,ugm-3
14-01-2018,05:00,6.65945,R,ugm-3,22.68259,R,ugm-3,32.89361,R,ugm-3
14-01-2018,06:00,7.20032,R,ugm-3,22.31296,R,ugm-3,33.35330,R,ugm-3
14-01-2018,07:00,12.06814,R,ugm-3,24.24725,R,ugm-3,42.75147,R,ugm-3
14-01-2018,08:00,7.87641,R,ugm-3,20.30585,R,ugm-3,32.38284,R,ugm-3
14-01-2018,09:00,12.84564,R,ugm-3,25.04710,R,ugm-3,44.74348,R,ugm-3
14-01-2018,10:00,11.56108,R,ugm-3,28.29367,R,ugm-3,46.02041,R,ugm-3
14-01-2018,11:00,10.68217,R,ugm-3,27.80254,R,ugm-3,44.18163,R,ugm-3
14-01-2018,12:00,8.31586,R,ugm-3,24.22896,R,ugm-3,36.97977,R,ugm-3
14-01-2018,13:00,5.64532,R,ugm-3,20.91756,R,ugm-3,29.57360,R,ugm-3
14-01-2018,14:00,4.46217,R,ugm-3,19.66708,R,ugm-3,26.50898,R,ugm-3
14-01-2018,15:00,5.23967,R,ugm-3,20.36478,R,ugm-3,28.39883,R,ugm-3
14-01-2018,16:00,2.67054,R,ugm-3,18.12374,R,ugm-3,22.21851,R,ugm-3
14-01-2018,17:00,3.61706,R,ugm-3,20.29889,R,ugm-3,25.84498,R,ugm-3
14-01-2018,18:00,2.23109,R,ugm-3,19.20617,R,ugm-3,22.62712,R,ugm-3
14-01-2018,19:00,2.09587,R,ugm-3,24.36798,R,ugm-3,27.58160,R,ugm-3
14-01-2018,20:00,2.26489,R,ugm-3,23.85343,R,ugm-3,27.32621,R,ugm-3
14-01-2018,21:00,2.40011,R,ugm-3,19.45778,R,ugm-3,23.13790,R,ugm-3
14-01-2018,22:00,1.82543,R,ugm-3,16.91677,R,ugm-3,19.71573,R,ugm-3
14-01-2018,23:00,1.75783,R,ugm-3,15.13059,R,ugm-3,17.82588,R,ugm-3
14-01-2018,24:00,1.85924,R,ugm-3,13.39170,R,ugm-3,16.24250,R,ugm-3
15-01-2018,01:00,1.80286,R,ugm-3,12.38107,R,ugm-3,15.14541,R,ugm-3
15-01-2018,02:00,1.30707,R,ugm-3,9.79836,R,ugm-3,11.80250,R,ugm-3
15-01-2018,03:00,1.38595,R,ugm-3,8.10830,R,ugm-3,10.23339,R,ugm-3
15-01-2018,04:00,1.31834,R,ugm-3,7.29096,R,ugm-3,9.31238,R,ugm-3
15-01-2018,05:00,1.41975,R,ugm-3,7.28896,R,ugm-3,9.46588,R,ugm-3
15-01-2018,06:00,1.92680,R,ugm-3,8.50700,R,ugm-3,11.46139,R,ugm-3
15-01-2018,07:00,2.53527,R,ugm-3,11.51389,R,ugm-3,15.40125,R,ugm-3
15-01-2018,08:00,3.10993,R,ugm-3,19.12647,R,ugm-3,23.89496,R,ugm-3
15-01-2018,09:00,4.80010,R,ugm-3,23.44243,R,ugm-3,30.80249,R,ugm-3
15-01-2018,10:00,4.90152,R,ugm-3,21.75193,R,ugm-3,29.26748,R,ugm-3
15-01-2018,11:00,4.80010,R,ugm-3,22.77727,R,ugm-3,30.13732,R,ugm-3
15-01-2018,12:00,6.49028,R,ugm-3,25.66056,R,ugm-3,35.61218,R,ugm-3
15-01-2018,13:00,8.01144,R,ugm-3,24.65848,R,ugm-3,36.94252,R,ugm-3
15-01-2018,14:00,12.33829,R,ugm-3,30.15063,R,ugm-3,49.06909,R,ugm-3
15-01-2018,15:00,13.96087,R,ugm-3,21.31802,R,ugm-3,42.72439,R,ugm-3
15-01-2018,16:00,8.58610,R,ugm-3,22.03768,R,ugm-3,35.20285,R,ugm-3
15-01-2018,17:00,7.74101,R,ugm-3,21.79845,R,ugm-3,33.66784,R,ugm-3
15-01-2018,18:00,7.97764,R,ugm-3,32.33419,R,ugm-3,44.56640,R,ugm-3
15-01-2018,19:00,5.20575,R,ugm-3,26.60681,R,ugm-3,34.58884,R,ugm-3